Yuba City, California, United States (95991)
Lat: 39.14N, Lon: 121.62W
Wx Zone: CAZ016
Local Info
Past Weather Observations for Wednesday, December 17, 2014

NOTE: This archive is for the closest National Weather Service station to Yuba City. Information may differ from the station used for current weather conditions.

Click here for Long-term Archive

Time Weather Temperature Dewpoint Humidity Pressure Winds Precip Visibility
23:53
Overcast
Light Rain
52°F / 11°C 48°F / 9°C 88% 30.12 in
(1020 mb)
E 4.6 mph
(E 7 kph)
0.01 in
(0.25 mm)
9SM
22:53
Overcast
Light Rain
52°F / 11°C 48°F / 9°C 88% 30.12 in
(1020 mb)
ESE 5.8 mph
(ESE 9 kph)
0.01 in
(0.25 mm)
8SM
21:53
Overcast
Light Rain
50°F / 10°C 48°F / 9°C 94% 30.12 in
(1020 mb)
SE 4.6 mph
(SE 7 kph)
0.03 in
(0.76 mm)
10SM
21:23
Overcast
Light Rain
50°F / 10°C 48°F / 9°C 94% 30.09 in
(1019 mb)
SSE 4.6 mph
(SSE 7 kph)
0.02 in
(0.51 mm)
10SM
21:07
Overcast
Light Rain
50°F / 10°C 48°F / 9°C 94% 30.09 in
(1019 mb)
SSE 5.8 mph
(SSE 9 kph)
0.01 in
(0.25 mm)
8SM
20:53
Overcast
Rain
50°F / 10°C 48°F / 9°C 94% 30.09 in
(1019 mb)
S 4.6 mph
(S 7 kph)
0.04 in
(1.02 mm)
7SM
20:21
Overcast
Light Rain
50°F / 10°C 48°F / 9°C 94% 30.09 in
(1019 mb)
SW 3.5 mph
(SW 6 kph)
0.01 in
(0.25 mm)
10SM
19:53
Overcast
Light Rain
52°F / 11°C 46°F / 8°C 82% 30.09 in
(1019 mb)
SW 4.6 mph
(SW 7 kph)
0.00 in
(0.00 mm)
10SM
18:53
Overcast
54°F / 12°C 46°F / 8°C 77% 30.06 in
(1018 mb)
SE 10.4 mph
(SE 17 kph)
- 10SM
17:53
Overcast
54°F / 12°C 46°F / 8°C 77% 30.06 in
(1018 mb)
SE 8.1 mph
(SE 13 kph)
- 10SM
16:53
Partly Cloudy
54°F / 12°C 48°F / 9°C 82% 30.04 in
(1017 mb)
SE 10.4 mph
(SE 17 kph)
- 10SM
15:53
Partly Cloudy
54°F / 12°C 48°F / 9°C 82% 30.04 in
(1017 mb)
SSE 12.7 mph
(SSE 20 kph)
- 10SM
14:53
Overcast
55°F / 13°C 48°F / 9°C 77% 30.01 in
(1016 mb)
SSE 13.8 mph
(SSE 22 kph)
- 10SM
13:53
Overcast
55°F / 13°C 48°F / 9°C 77% 30.01 in
(1016 mb)
SSE 16.1 mph
(SSE 26 kph)
- 10SM
13:02
Overcast
55°F / 13°C 48°F / 9°C 77% 30.04 in
(1017 mb)
S 13.8 mph
(S 22 kph)
- 10SM
12:53
Overcast
55°F / 13°C 50°F / 10°C 82% 30.04 in
(1017 mb)
SSE 13.8 mph
(SSE 22 kph)
- 10SM
12:36
Overcast
54°F / 12°C 50°F / 10°C 88% 30.04 in
(1017 mb)
S 16.1 mph
(S 26 kph)
- 10SM
12:10
Overcast
55°F / 13°C 50°F / 10°C 82% 30.04 in
(1017 mb)
SSE 15 mph
(SSE 24 kph)
- 10SM
12:02
Overcast
54°F / 12°C 48°F / 9°C 82% 30.04 in
(1017 mb)
SSE 16.1 mph
(SSE 26 kph)
- 10SM
11:53
Overcast
54°F / 12°C 50°F / 10°C 88% 30.04 in
(1017 mb)
SSE 16.1 mph
(SSE 26 kph)
- 10SM
11:50
Overcast
54°F / 12°C 50°F / 10°C 88% 30.04 in
(1017 mb)
SSE 17.3 mph
(SSE 28 kph)
- 10SM
10:53
Overcast
54°F / 12°C 50°F / 10°C 88% 30.06 in
(1018 mb)
S 12.7 mph
(S 20 kph)
- 10SM
09:53
Overcast
52°F / 11°C 48°F / 9°C 88% 30.04 in
(1017 mb)
SSE 12.7 mph
(SSE 20 kph)
- 10SM
09:38
Overcast
52°F / 11°C 48°F / 9°C 88% 30.04 in
(1017 mb)
SSE 15 mph
(SSE 24 kph)
- 10SM
08:53
Overcast
52°F / 11°C 46°F / 8°C 82% 30.04 in
(1017 mb)
SSE 13.8 mph
(SSE 22 kph)
0.00 in
(0.00 mm)
10SM
07:53
Overcast
52°F / 11°C 46°F / 8°C 82% 30.01 in
(1016 mb)
SSE 10.4 mph
(SSE 17 kph)
0.00 in
(0.00 mm)
10SM
06:53
Overcast
Light Rain
50°F / 10°C 46°F / 8°C 88% 29.98 in
(1015 mb)
SSE 10.4 mph
(SSE 17 kph)
0.01 in
(0.25 mm)
10SM
05:53
Mostly Cloudy
50°F / 10°C 46°F / 8°C 88% 29.98 in
(1015 mb)
SE 11.5 mph
(SE 19 kph)
0.00 in
(0.00 mm)
10SM
04:53
Overcast
Light Rain
48°F / 9°C 46°F / 8°C 94% 29.98 in
(1015 mb)
SSE 11.5 mph
(SSE 19 kph)
0.01 in
(0.25 mm)
10SM
03:53
Overcast
50°F / 10°C 46°F / 8°C 88% 29.98 in
(1015 mb)
SSE 10.4 mph
(SSE 17 kph)
0.00 in
(0.00 mm)
10SM
02:53
Overcast
50°F / 10°C 46°F / 8°C 88% 29.95 in
(1014 mb)
SSE 16.1 mph
(SSE 26 kph)
- 10SM
01:53
Partly Cloudy
50°F / 10°C 46°F / 8°C 88% 29.95 in
(1014 mb)
SSE 13.8 mph
(SSE 22 kph)
- 10SM
00:53
Mostly Cloudy
50°F / 10°C 46°F / 8°C 88% 29.92 in
(1013 mb)
SSE 12.7 mph
(SSE 20 kph)
- 10SM
Time Weather Temperature Dewpoint Humidity Pressure Winds Precip Visibility


Weather for websites

WeatherForYou.com, LLC is not responsible for any damages or problems caused by this service. Current weather conditions are obtained from the closest station including government and personal stations which may have varying degrees of accuracy. Weather forecasts are derived from the NOAA NDFD. Like all things, this site belongs to Jesus Christ... He just trusts me to maintain it. If you have any questions or comments email webmaster@weatherforyou.com

Copyright © 2014, WeatherForYou.com LLC. All rights reserved.